Погода в Америкусе

США     32°04′18″N   84°13′57″W
темп.,
°C
ветер,
м/с
пор.,
м/с
влажн.,
%
обл.,
%
осадки,
мм/ч
давл.,
гПа
погр.,
м
21 октября, чт
чт2123:00+19ююв1166100 0.0 102211
02:00+18ююв2269100 0.0 102117
05:00+18ю227487 0.0 102133
08:00+17ю2280100 0.0 102221
11:00+23ююз34625 0.0 1022530
14:00+27ююз344835 0.0 10191410
17:00+27ююз454913 0.0 10171457
20:00+23ююз366153 0.0 1018117
22 октября, пт
пт2223:00+21юз387418 0.1 1018173
02:00+19зюз398994 0.3 1017210
05:00+19зюз389583 0.6 1016199
08:00+18з369755 0.9 1017149
11:00+23зсз34705 0.0 1018554
14:00+27зсз46495 0.0 10161547
17:00+27зсз45400 0.0 10151604
20:00+21сз37474 0.0 1016113
23 октября, сб
сб2323:00+18ссз36535 0.0 1017112
02:00+16с35590 0.0 101786
05:00+15с33650 0.0 101753
08:00+14с22670 0.0 101935
11:00+20ссв23480 0.0 1020386
14:00+25ссв12350 0.0 1018810
17:00+26всв11340 0.0 1017963
20:00+20в11460 0.0 101811
24 октября, вс
вс2423:00+19в22490 0.0 101916
02:00+17в22530 0.0 101915
05:00+16вюв22570 0.0 101919
08:00+15вюв22610 0.0 102011
11:00+22вюв344936 0.0 1021341
14:00+27ююв33425 0.0 10191060
17:00+28юв344274 0.0 10171660
20:00+22вюв35602 0.0 101886
25 октября, пн
пн2523:00+21вюв35590 0.0 101972
02:00+19ююв22630 0.0 101943
05:00+18ю22740 0.0 101818
08:00+18ю22810 0.0 101912
11:00+25ююз34630 0.0 1020462
14:00+29юз455317 0.0 10161384
17:00+29юз3551100 0.0 10151810
20:00+26з386594 0.0 1016259